contact:dominique.lefevre@mio.osupytheas.fr, maurice.libes@osupytheas.fr, didier.mallarino@osupytheas.fr
Project:EMSO http://www.emso-fr.org/EMSO-France
Depth: 2436.0 m
Title:EMSO Ligure Ouest : Data MII capteur AQUADOPP
Date,Latitude,Longitude,X_East,Y_North,Z_Up,Amplitude_X,Amplitude_Y,Amplitude_Z,Batterie,SoundSpeed,Heading,Pitch,Roll,Pressure,TIS,Speed,Direction
, degrees North, degrees East, m.s-1, m.s-1,m.s-1, 1, 1, 1, Volt, m.s-1, degree, degree, degree, dbar, degree_C, m.s-1, degree
2022-02-02T00:04:03,42.805,6.029,-0.063,0.003,-0.029,106.0,104.0,102.0,13.4,1505.2,326.3,-0.8,1.8,2470.081,13.28,0.063,272.7
2022-02-02T00:07:03,42.805,6.029,-0.071,-0.013,-0.014,105.0,104.0,102.0,13.4,1505.2,328.1,-0.8,1.8,2470.074,13.28,0.072,259.6
2022-02-02T00:10:03,42.805,6.029,-0.069,-0.01,-0.035,105.0,104.0,103.0,13.4,1505.2,324.5,-0.7,1.8,2470.023,13.28,0.069,261.8
2022-02-02T00:13:03,42.805,6.029,-0.02,0.002,-0.001,106.0,106.0,103.0,13.4,1505.2,328.0,-0.8,1.8,2470.047,13.28,0.02,275.7
2022-02-02T00:16:03,42.805,6.029,-0.069,-0.013,-0.029,106.0,105.0,103.0,13.4,1505.2,329.1,-0.8,1.8,2470.027,13.28,0.07,259.3
2022-02-02T00:19:03,42.805,6.029,-0.078,-0.002,-0.012,104.0,104.0,103.0,13.4,1505.2,327.5,-0.8,1.8,2470.052,13.28,0.078,268.5
2022-02-02T00:22:03,42.805,6.029,-0.086,-0.002,-0.01,105.0,104.0,103.0,13.4,1505.2,327.6,-0.7,1.8,2470.074,13.28,0.086,268.7
2022-02-02T00:25:03,42.805,6.029,-0.068,0.012,-0.016,104.0,104.0,103.0,13.4,1505.2,324.3,-0.7,1.8,2470.074,13.28,0.069,280.0
2022-02-02T00:28:03,42.805,6.029,-0.084,0.0,-0.04,105.0,103.0,103.0,13.4,1505.2,327.7,-0.8,1.8,2470.123,13.28,0.083,270.0
2022-02-02T00:31:03,42.805,6.029,-0.074,0.011,-0.064,105.0,104.0,102.0,13.4,1505.2,326.5,-0.8,1.8,2470.096,13.28,0.074,278.5
2022-02-02T00:34:03,42.805,6.029,-0.065,-0.02,-0.018,105.0,103.0,104.0,13.4,1505.2,328.0,-0.8,1.8,2470.131,13.28,0.068,252.9
2022-02-02T00:37:03,42.805,6.029,-0.069,0.0,0.001,105.0,104.0,103.0,13.4,1505.2,325.8,-0.8,1.8,2470.107,13.28,0.068,270.0
2022-02-02T00:40:03,42.805,6.029,-0.071,-0.008,-0.02,105.0,104.0,102.0,13.3,1505.2,325.9,-0.7,1.8,2470.154,13.28,0.071,263.6
2022-02-02T00:43:03,42.805,6.029,-0.085,-0.001,-0.027,106.0,103.0,103.0,13.3,1505.2,327.5,-0.8,1.8,2470.09,13.28,0.085,269.3
2022-02-02T00:46:03,42.805,6.029,-0.063,0.005,-0.005,104.0,106.0,102.0,13.4,1505.2,328.5,-0.8,1.8,2470.13,13.28,0.063,274.5
2022-02-02T00:49:03,42.805,6.029,-0.063,0.014,-0.038,104.0,105.0,103.0,13.4,1505.2,326.2,-0.8,1.8,2470.135,13.28,0.064,282.5
2022-02-02T00:52:03,42.805,6.029,-0.059,0.019,-0.015,103.0,103.0,103.0,13.4,1505.2,329.1,-0.8,1.8,2470.116,13.28,0.061,287.8
2022-02-02T00:55:03,42.805,6.029,-0.084,0.0,-0.005,104.0,106.0,103.0,13.4,1505.2,327.9,-0.8,1.8,2470.197,13.28,0.083,270.0
2022-02-02T00:58:03,42.805,6.029,-0.077,-0.002,-0.03,106.0,104.0,102.0,13.4,1505.2,327.5,-0.7,1.8,2470.126,13.28,0.077,268.5
2022-02-02T01:04:03,42.805,6.029,-0.084,0.017,-0.024,104.0,105.0,103.0,13.3,1505.2,328.4,-0.7,1.9,2470.164,13.28,0.085,281.4
2022-02-02T01:07:03,42.805,6.029,-0.069,0.011,-0.012,105.0,105.0,102.0,13.4,1505.2,328.5,-0.8,1.8,2470.151,13.28,0.069,279.1
2022-02-02T01:10:03,42.805,6.029,-0.081,0.008,-0.02,104.0,105.0,102.0,13.4,1505.2,327.8,-0.8,1.8,2470.139,13.28,0.081,275.6
2022-02-02T01:13:03,42.805,6.029,-0.039,-0.007,0.014,105.0,105.0,102.0,13.4,1505.2,327.2,-0.7,1.8,2470.181,13.28,0.039,259.8
2022-02-02T01:16:03,42.805,6.029,-0.035,-0.014,-0.005,104.0,104.0,102.0,13.3,1505.2,324.7,-0.8,1.8,2470.173,13.28,0.037,248.2
2022-02-02T01:19:03,42.805,6.029,-0.046,0.007,0.006,105.0,103.0,103.0,13.4,1505.2,323.6,-0.7,1.8,2470.107,13.28,0.046,278.7
2022-02-02T01:22:03,42.805,6.029,-0.08,-0.006,-0.015,105.0,104.0,103.0,13.3,1505.2,326.2,-0.8,1.8,2470.146,13.28,0.08,265.7
2022-02-02T01:25:03,42.805,6.029,-0.051,-0.013,-0.018,104.0,104.0,103.0,13.4,1505.2,326.0,-0.7,1.8,2470.117,13.28,0.052,255.7
2022-02-02T01:28:03,42.805,6.029,-0.06,0.002,-0.003,105.0,105.0,101.0,13.4,1505.2,328.1,-0.7,1.8,2470.143,13.28,0.06,271.9
2022-02-02T01:31:03,42.805,6.029,-0.053,-0.002,-0.015,104.0,105.0,102.0,13.4,1505.2,329.9,-0.7,1.8,2470.169,13.28,0.053,267.8
2022-02-02T01:34:03,42.805,6.029,-0.093,0.009,-0.028,105.0,103.0,103.0,13.3,1505.2,330.1,-0.8,1.8,2470.128,13.28,0.093,275.5
2022-02-02T01:37:03,42.805,6.029,-0.054,-0.01,-0.01,105.0,103.0,101.0,13.4,1505.2,331.7,-0.7,1.8,2470.155,13.28,0.054,259.5
2022-02-02T01:40:03,42.805,6.029,-0.035,-0.011,-0.014,104.0,105.0,103.0,13.3,1505.2,329.2,-0.8,1.9,2470.155,13.28,0.036,252.6
2022-02-02T01:43:03,42.805,6.029,-0.037,0.012,-0.007,105.0,103.0,103.0,13.4,1505.2,326.9,-0.8,1.8,2470.116,13.28,0.038,288.0
2022-02-02T01:46:03,42.805,6.029,-0.07,0.002,-0.033,103.0,104.0,103.0,13.4,1505.2,323.8,-0.7,1.8,2470.148,13.28,0.07,271.6
2022-02-02T01:49:03,42.805,6.029,-0.055,-0.001,-0.034,106.0,104.0,103.0,13.3,1505.2,327.0,-0.7,1.8,2470.148,13.28,0.055,269.0
2022-02-02T01:52:03,42.805,6.029,-0.045,0.017,-0.001,104.0,105.0,102.0,13.3,1505.2,330.5,-0.7,1.8,2470.189,13.28,0.048,290.7
2022-02-02T01:55:03,42.805,6.029,-0.055,-0.015,-0.024,105.0,104.0,102.0,13.3,1505.2,330.1,-0.8,1.8,2470.152,13.28,0.057,254.7
2022-02-02T01:58:03,42.805,6.029,-0.061,0.013,0.009,105.0,104.0,103.0,13.4,1505.2,331.4,-0.8,1.8,2470.164,13.28,0.062,282.0
2022-02-02T02:04:03,42.805,6.029,-0.076,-0.003,-0.027,106.0,104.0,102.0,13.4,1505.2,328.7,-0.8,1.8,2470.135,13.28,0.076,267.7
2022-02-02T02:07:03,42.805,6.029,-0.054,-0.01,-0.039,105.0,104.0,103.0,13.4,1505.2,328.0,-0.7,1.8,2470.085,13.28,0.054,259.5
2022-02-02T02:10:03,42.805,6.029,-0.054,-0.009,-0.017,105.0,104.0,102.0,13.3,1505.2,324.0,-0.7,1.8,2470.066,13.28,0.054,260.5
2022-02-02T02:13:03,42.805,6.029,-0.064,0.009,-0.001,104.0,104.0,102.0,13.4,1505.2,330.6,-0.8,1.8,2470.076,13.28,0.064,278.0
2022-02-02T02:16:03,42.805,6.029,-0.06,0.008,-0.044,105.0,104.0,102.0,13.4,1505.2,328.4,-0.7,1.8,2470.035,13.28,0.06,277.6
2022-02-02T02:19:03,42.805,6.029,-0.073,-0.002,-0.029,105.0,105.0,102.0,13.4,1505.2,325.9,-0.8,1.8,2470.02,13.28,0.073,268.4
2022-02-02T02:22:03,42.805,6.029,-0.051,0.003,-0.014,105.0,105.0,102.0,13.4,1505.2,326.4,-0.8,1.8,2469.993,13.28,0.051,273.4
2022-02-02T02:25:03,42.805,6.029,-0.025,0.001,-0.019,106.0,104.0,103.0,13.3,1505.2,328.4,-0.8,1.8,2469.937,13.28,0.025,272.3
2022-02-02T02:28:03,42.805,6.029,-0.058,0.01,-0.012,106.0,104.0,102.0,13.4,1505.2,326.7,-0.7,1.8,2469.909,13.28,0.058,279.8
2022-02-02T02:31:03,42.805,6.029,-0.069,0.009,-0.018,105.0,103.0,102.0,13.3,1505.2,328.8,-0.8,1.8,2469.947,13.28,0.069,277.4
2022-02-02T02:34:03,42.805,6.029,-0.037,0.007,0.001,105.0,104.0,102.0,13.4,1505.2,326.7,-0.8,1.8,2469.889,13.28,0.037,280.7
2022-02-02T02:37:03,42.805,6.029,-0.057,-0.014,-0.013,105.0,106.0,102.0,13.4,1505.2,331.3,-0.7,1.9,2469.854,13.28,0.058,256.2
2022-02-02T02:40:03,42.805,6.029,-0.043,0.036,-0.021,105.0,104.0,103.0,13.3,1505.2,331.4,-0.8,1.8,2469.894,13.28,0.056,309.9
2022-02-02T02:43:03,42.805,6.029,-0.063,-0.008,-0.007,104.0,104.0,103.0,13.3,1505.2,326.2,-0.7,1.8,2469.851,13.28,0.063,262.8
2022-02-02T02:46:03,42.805,6.029,-0.072,-0.017,-0.025,105.0,103.0,103.0,13.4,1505.2,324.1,-0.8,1.8,2469.845,13.28,0.073,256.7
2022-02-02T02:49:03,42.805,6.029,-0.051,-0.001,-0.015,105.0,103.0,102.0,13.3,1505.2,325.8,-0.8,1.8,2469.86,13.28,0.051,268.9
2022-02-02T02:52:03,42.805,6.029,-0.048,-0.007,-0.015,105.0,104.0,103.0,13.4,1505.2,330.5,-0.8,1.8,2469.853,13.28,0.048,261.7
2022-02-02T02:55:03,42.805,6.029,-0.038,0.012,-0.024,105.0,105.0,102.0,13.4,1505.2,329.8,-0.8,1.8,2469.804,13.28,0.039,287.5
2022-02-02T02:58:03,42.805,6.029,-0.03,-0.017,-0.017,106.0,104.0,103.0,13.4,1505.2,326.4,-0.7,1.8,2469.78,13.29,0.034,240.5
2022-02-02T03:04:03,42.805,6.029,-0.053,0.001,-0.012,105.0,104.0,103.0,13.4,1505.2,327.9,-0.7,1.9,2469.767,13.28,0.053,271.1
2022-02-02T03:07:03,42.805,6.029,-0.054,0.008,-0.023,104.0,104.0,102.0,13.4,1505.2,324.6,-0.7,1.8,2469.78,13.28,0.054,278.4
2022-02-02T03:10:03,42.805,6.029,-0.043,-0.009,-0.024,105.0,105.0,103.0,13.4,1505.2,329.6,-0.8,1.9,2469.771,13.28,0.043,258.2
2022-02-02T03:13:03,42.805,6.029,-0.047,0.014,-0.016,106.0,104.0,102.0,13.4,1505.2,325.7,-0.8,1.8,2469.742,13.28,0.049,286.6
2022-02-02T03:16:03,42.805,6.029,-0.045,0.014,0.007,104.0,104.0,103.0,13.4,1505.2,329.1,-0.7,1.8,2469.759,13.28,0.047,287.3
2022-02-02T03:19:03,42.805,6.029,-0.038,-0.009,-0.019,105.0,104.0,103.0,13.4,1505.2,326.1,-0.8,1.8,2469.743,13.28,0.039,256.7
2022-02-02T03:22:03,42.805,6.029,-0.046,0.007,-0.034,105.0,104.0,103.0,13.3,1505.2,329.1,-0.8,1.8,2469.786,13.28,0.046,278.7
2022-02-02T03:25:03,42.805,6.029,-0.05,0.007,-0.017,106.0,104.0,103.0,13.3,1505.2,323.4,-0.7,1.8,2469.784,13.28,0.05,278.0
2022-02-02T03:28:03,42.805,6.029,-0.034,0.0,-0.032,105.0,104.0,102.0,13.3,1505.2,331.3,-0.7,1.8,2469.851,13.28,0.034,270.0
2022-02-02T03:31:03,42.805,6.029,-0.039,-0.002,0.003,106.0,105.0,103.0,13.3,1505.2,325.7,-0.7,1.8,2469.871,13.28,0.039,267.1
2022-02-02T03:34:03,42.805,6.029,-0.037,-0.014,-0.064,105.0,104.0,102.0,13.4,1505.2,323.3,-0.7,1.8,2469.885,13.28,0.039,249.3
2022-02-02T03:37:03,42.805,6.029,-0.059,0.011,-0.036,105.0,105.0,103.0,13.4,1505.2,325.7,-0.7,1.8,2469.931,13.28,0.06,280.6
2022-02-02T03:40:03,42.805,6.029,-0.068,-0.004,-0.022,105.0,104.0,102.0,13.4,1505.2,326.0,-0.8,1.9,2469.951,13.28,0.068,266.6
2022-02-02T03:43:03,42.805,6.029,-0.05,0.002,-0.009,105.0,104.0,102.0,13.4,1505.2,326.0,-0.8,1.8,2469.953,13.28,0.05,272.3
2022-02-02T03:46:03,42.805,6.029,-0.053,0.005,-0.009,105.0,104.0,103.0,13.4,1505.2,326.9,-0.8,1.8,2470.028,13.28,0.053,275.4
2022-02-02T03:49:03,42.805,6.029,-0.042,0.012,0.007,105.0,105.0,102.0,13.3,1505.2,328.8,-0.7,1.8,2470.017,13.28,0.043,285.9
2022-02-02T03:52:03,42.805,6.029,-0.066,-0.013,-0.036,105.0,104.0,103.0,13.3,1505.2,328.7,-0.8,1.8,2470.099,13.28,0.067,258.9
2022-02-02T03:55:03,42.805,6.029,-0.034,-0.021,-0.031,104.0,105.0,104.0,13.4,1505.2,328.4,-0.7,1.8,2470.129,13.28,0.039,238.3
2022-02-02T03:58:03,42.805,6.029,-0.052,-0.001,-0.036,104.0,105.0,102.0,13.4,1505.2,327.4,-0.7,1.8,2470.162,13.28,0.052,268.9
2022-02-02T04:04:03,42.805,6.029,-0.05,-0.011,-0.011,105.0,104.0,102.0,13.3,1505.2,324.8,-0.8,1.8,2470.215,13.28,0.051,257.6
2022-02-02T04:07:03,42.805,6.029,-0.024,-0.023,-0.019,105.0,105.0,104.0,13.4,1505.2,328.4,-0.8,1.8,2470.254,13.28,0.033,226.2
2022-02-02T04:10:03,42.805,6.029,-0.056,-0.003,-0.022,105.0,105.0,103.0,13.3,1505.2,328.1,-0.7,1.8,2470.26,13.28,0.056,266.9
2022-02-02T04:13:03,42.805,6.029,-0.033,-0.019,-0.026,104.0,104.0,103.0,13.4,1505.2,327.5,-0.8,1.8,2470.299,13.28,0.038,240.1
2022-02-02T04:16:03,42.805,6.029,-0.021,-0.01,-0.014,105.0,104.0,103.0,13.4,1505.2,328.7,-0.7,1.8,2470.356,13.28,0.023,244.5
2022-02-02T04:19:03,42.805,6.029,-0.045,-0.011,-0.039,105.0,105.0,103.0,13.3,1505.2,326.3,-0.7,1.8,2470.303,13.28,0.046,256.3
2022-02-02T04:22:03,42.805,6.029,-0.048,-0.006,-0.01,105.0,105.0,103.0,13.3,1505.2,324.2,-0.8,1.8,2470.342,13.28,0.048,262.9
2022-02-02T04:25:03,42.805,6.029,-0.038,-0.003,-0.016,105.0,105.0,102.0,13.3,1505.2,331.5,-0.7,1.8,2470.383,13.28,0.038,265.5
2022-02-02T04:28:03,42.805,6.029,-0.041,-0.011,-0.023,106.0,104.0,102.0,13.4,1505.2,327.9,-0.7,1.9,2470.39,13.28,0.042,255.0
2022-02-02T04:31:03,42.805,6.029,-0.04,0.0,-0.023,105.0,104.0,103.0,13.3,1505.2,325.4,-0.8,1.8,2470.38,13.28,0.04,270.0
2022-02-02T04:34:03,42.805,6.029,-0.045,-0.011,-0.023,105.0,106.0,103.0,13.3,1505.2,325.3,-0.7,1.8,2470.395,13.28,0.046,256.3
2022-02-02T04:37:03,42.805,6.029,-0.044,0.007,-0.026,105.0,103.0,103.0,13.4,1505.2,326.8,-0.7,1.8,2470.409,13.28,0.044,279.0
2022-02-02T04:40:03,42.805,6.029,-0.062,-0.004,-0.006,104.0,105.0,103.0,13.4,1505.2,330.4,-0.7,1.8,2470.438,13.28,0.062,266.3
2022-02-02T04:43:03,42.805,6.029,-0.036,-0.003,-0.032,106.0,105.0,103.0,13.3,1505.2,324.4,-0.8,1.8,2470.443,13.28,0.036,265.2
2022-02-02T04:46:03,42.805,6.029,-0.059,-0.019,-0.019,105.0,104.0,103.0,13.3,1505.2,325.9,-0.8,1.8,2470.455,13.28,0.061,252.2
2022-02-02T04:49:03,42.805,6.029,-0.051,-0.02,-0.005,104.0,105.0,104.0,13.4,1505.2,328.5,-0.8,1.8,2470.493,13.28,0.054,248.6
2022-02-02T04:52:03,42.805,6.029,-0.048,-0.03,-0.038,105.0,104.0,103.0,13.4,1505.2,327.2,-0.8,1.9,2470.507,13.28,0.056,238.0
2022-02-02T04:55:03,42.805,6.029,-0.061,-0.017,-0.016,106.0,104.0,102.0,13.4,1505.2,327.4,-0.8,1.8,2470.493,13.28,0.063,254.4
2022-02-02T04:58:03,42.805,6.029,-0.055,-0.019,-0.039,106.0,104.0,103.0,13.4,1505.2,328.6,-0.7,1.8,2470.52,13.28,0.058,250.9
2022-02-02T05:04:03,42.805,6.029,-0.057,-0.029,-0.014,105.0,104.0,103.0,13.4,1505.2,329.3,-0.8,1.8,2470.559,13.28,0.063,243.0
2022-02-02T05:07:03,42.805,6.029,-0.069,-0.017,-0.01,104.0,103.0,103.0,13.4,1505.2,324.4,-0.7,1.8,2470.512,13.28,0.071,256.2
2022-02-02T05:10:03,42.805,6.029,-0.075,-0.006,-0.029,103.0,105.0,103.0,13.3,1505.2,324.0,-0.8,1.8,2470.556,13.28,0.075,265.4
2022-02-02T05:13:03,42.805,6.029,-0.05,-0.022,-0.026,103.0,104.0,102.0,13.3,1505.2,328.0,-0.8,1.8,2470.535,13.28,0.054,246.3
2022-02-02T05:16:03,42.805,6.029,-0.049,-0.006,-0.016,104.0,103.0,102.0,13.4,1505.2,326.9,-0.7,1.8,2470.529,13.28,0.049,263.0
2022-02-02T05:19:03,42.805,6.029,-0.049,-0.031,-0.01,104.0,103.0,102.0,13.3,1505.2,325.9,-0.7,1.8,2470.514,13.28,0.057,237.7
2022-02-02T05:22:03,42.805,6.029,-0.072,0.013,-0.002,104.0,104.0,102.0,13.4,1505.2,328.8,-0.8,1.8,2470.541,13.28,0.073,280.2
2022-02-02T05:25:03,42.805,6.029,-0.034,-0.033,-0.006,105.0,104.0,102.0,13.4,1505.2,327.4,-0.7,1.8,2470.519,13.28,0.047,225.9
2022-02-02T05:28:03,42.805,6.029,-0.032,-0.012,-0.008,104.0,103.0,102.0,13.4,1505.2,325.6,-0.7,1.8,2470.536,13.28,0.034,249.4
2022-02-02T05:31:03,42.805,6.029,-0.066,-0.011,-0.019,104.0,105.0,101.0,13.4,1505.2,330.0,-0.8,1.8,2470.527,13.28,0.066,260.5
2022-02-02T05:34:03,42.805,6.029,-0.044,-0.004,-0.03,104.0,103.0,102.0,13.4,1505.2,324.7,-0.7,1.8,2470.54,13.28,0.044,264.8
2022-02-02T05:37:03,42.805,6.029,-0.07,-0.012,-0.014,103.0,103.0,103.0,13.3,1505.2,331.3,-0.7,1.8,2470.48,13.28,0.071,260.3
2022-02-02T05:40:03,42.805,6.029,-0.053,-0.034,-0.047,104.0,103.0,102.0,13.4,1505.2,325.4,-0.8,1.9,2470.521,13.28,0.062,237.3
2022-02-02T05:43:03,42.805,6.029,-0.069,0.0,-0.005,104.0,104.0,103.0,13.3,1505.2,331.5,-0.8,1.8,2470.524,13.28,0.068,270.0
2022-02-02T05:46:03,42.805,6.029,-0.047,-0.016,-0.023,104.0,103.0,103.0,13.4,1505.2,326.2,-0.8,1.8,2470.526,13.28,0.049,251.2
2022-02-02T05:49:03,42.805,6.029,-0.051,-0.009,-0.016,105.0,104.0,102.0,13.4,1505.2,326.8,-0.7,1.8,2470.525,13.28,0.051,260.0
2022-02-02T05:52:03,42.805,6.029,-0.047,-0.009,-0.036,104.0,103.0,103.0,13.4,1505.2,327.8,-0.8,1.8,2470.49,13.28,0.047,259.2
2022-02-02T05:55:03,42.805,6.029,-0.064,-0.022,-0.015,105.0,104.0,102.0,13.4,1505.2,325.7,-0.8,1.8,2470.512,13.28,0.067,251.0
2022-02-02T05:58:03,42.805,6.029,-0.058,-0.008,-0.01,104.0,104.0,102.0,13.4,1505.2,326.1,-0.8,1.8,2470.501,13.28,0.058,262.2
2022-02-02T06:04:03,42.805,6.029,-0.044,0.005,-0.01,103.0,103.0,102.0,13.4,1505.2,325.8,-0.7,1.8,2470.513,13.28,0.044,276.5
2022-02-02T06:07:03,42.805,6.029,-0.051,0.008,-0.022,103.0,103.0,102.0,13.4,1505.2,328.8,-0.8,1.8,2470.507,13.28,0.051,278.9
2022-02-02T06:10:03,42.805,6.029,-0.047,-0.007,-0.053,103.0,102.0,102.0,13.4,1505.2,329.0,-0.7,1.8,2470.477,13.28,0.047,261.5
2022-02-02T06:13:03,42.805,6.029,-0.066,-0.007,-0.053,102.0,103.0,102.0,13.4,1505.2,329.0,-0.7,1.8,2470.511,13.28,0.066,263.9
2022-02-02T06:16:03,42.805,6.029,-0.074,-0.017,-0.065,102.0,104.0,102.0,13.4,1505.2,329.0,-0.7,1.8,2470.517,13.28,0.075,257.1
2022-02-02T06:19:03,42.805,6.029,-0.034,0.009,-0.028,103.0,104.0,101.0,13.4,1505.2,324.3,-0.7,1.8,2470.489,13.28,0.035,284.8
2022-02-02T06:22:03,42.805,6.029,-0.06,-0.013,-0.01,102.0,103.0,103.0,13.4,1505.2,327.4,-0.8,1.9,2470.477,13.28,0.061,257.8
2022-02-02T06:25:03,42.805,6.029,-0.043,-0.012,-0.011,105.0,104.0,102.0,13.4,1505.2,327.7,-0.8,1.8,2470.436,13.28,0.044,254.4
2022-02-02T06:28:03,42.805,6.029,-0.066,-0.014,-0.026,106.0,104.0,101.0,13.3,1505.2,329.9,-0.8,1.8,2470.427,13.28,0.067,258.0
2022-02-02T06:31:03,42.805,6.029,-0.042,-0.019,-0.042,105.0,105.0,103.0,13.4,1505.2,325.9,-0.7,1.8,2470.413,13.28,0.046,245.7
2022-02-02T06:34:03,42.805,6.029,-0.044,-0.018,-0.011,105.0,105.0,102.0,13.4,1505.2,327.4,-0.8,1.8,2470.395,13.28,0.047,247.8
2022-02-02T06:37:03,42.805,6.029,-0.051,-0.011,-0.003,105.0,104.0,101.0,13.4,1505.2,329.4,-0.7,1.8,2470.348,13.28,0.052,257.8
2022-02-02T06:40:03,42.805,6.029,-0.044,-0.016,-0.057,104.0,104.0,102.0,13.4,1505.2,329.3,-0.8,1.8,2470.336,13.28,0.046,250.0
2022-02-02T06:43:03,42.805,6.029,-0.039,-0.029,-0.025,104.0,105.0,102.0,13.3,1505.2,327.3,-0.8,1.8,2470.337,13.28,0.048,233.4
2022-02-02T06:46:03,42.805,6.029,-0.062,-0.002,-0.033,104.0,105.0,103.0,13.4,1505.2,330.6,-0.7,1.8,2470.312,13.28,0.062,268.2
2022-02-02T06:49:03,42.805,6.029,-0.056,-0.026,-0.003,105.0,104.0,103.0,13.3,1505.2,328.4,-0.8,1.8,2470.29,13.28,0.061,245.1
2022-02-02T06:52:03,42.805,6.029,-0.034,-0.018,-0.009,105.0,104.0,102.0,13.4,1505.2,326.8,-0.8,1.8,2470.305,13.28,0.038,242.1
2022-02-02T06:55:03,42.805,6.029,-0.057,-0.009,-0.044,105.0,105.0,101.0,13.4,1505.2,327.9,-0.7,1.8,2470.27,13.28,0.057,261.0
2022-02-02T06:58:03,42.805,6.029,-0.055,-0.022,-0.022,105.0,104.0,101.0,13.3,1505.2,324.0,-0.7,1.8,2470.275,13.28,0.059,248.2
2022-02-02T07:04:03,42.805,6.029,-0.035,-0.027,-0.028,106.0,105.0,103.0,13.4,1505.2,331.5,-0.7,1.8,2470.265,13.28,0.044,232.3
2022-02-02T07:07:03,42.805,6.029,-0.045,-0.004,-0.026,105.0,104.0,103.0,13.4,1505.2,328.9,-0.8,1.8,2470.244,13.28,0.045,264.9
2022-02-02T07:10:03,42.805,6.029,-0.059,-0.016,-0.011,106.0,103.0,104.0,13.3,1505.2,330.7,-0.8,1.8,2470.209,13.28,0.061,254.8
2022-02-02T07:13:03,42.805,6.029,-0.058,-0.02,-0.045,104.0,103.0,102.0,13.4,1505.2,328.8,-0.8,1.8,2470.239,13.28,0.061,251.0
2022-02-02T07:16:03,42.805,6.029,-0.048,-0.016,-0.024,105.0,106.0,103.0,13.4,1505.2,330.0,-0.7,1.8,2470.229,13.28,0.05,251.6
2022-02-02T07:19:03,42.805,6.029,-0.076,-0.008,0.002,104.0,104.0,102.0,13.4,1505.2,326.3,-0.8,1.8,2470.218,13.28,0.076,264.0
2022-02-02T07:22:03,42.805,6.029,-0.041,-0.003,0.0,106.0,104.0,102.0,13.4,1505.2,330.2,-0.7,1.8,2470.207,13.28,0.041,265.8
2022-02-02T07:25:03,42.805,6.029,-0.032,-0.015,0.005,105.0,104.0,103.0,13.4,1505.2,329.9,-0.8,1.8,2470.187,13.28,0.035,244.9
2022-02-02T07:28:03,42.805,6.029,-0.052,-0.023,-0.044,104.0,106.0,102.0,13.4,1505.2,326.6,-0.7,1.8,2470.215,13.28,0.056,246.1
2022-02-02T07:31:03,42.805,6.029,-0.057,-0.028,-0.004,103.0,106.0,103.0,13.4,1505.2,326.3,-0.8,1.8,2470.228,13.28,0.063,243.8
2022-02-02T07:34:03,42.805,6.029,-0.043,-0.015,-0.013,105.0,104.0,102.0,13.4,1505.2,328.1,-0.8,1.8,2470.179,13.28,0.045,250.8
2022-02-02T07:37:03,42.805,6.029,-0.06,-0.017,-0.03,105.0,103.0,102.0,13.4,1505.2,329.9,-0.8,1.8,2470.195,13.28,0.062,254.2
2022-02-02T07:40:03,42.805,6.029,-0.044,-0.016,0.011,104.0,104.0,103.0,13.4,1505.2,324.9,-0.8,1.9,2470.196,13.28,0.046,250.0
2022-02-02T07:43:03,42.805,6.029,-0.048,-0.021,0.0,104.0,104.0,103.0,13.3,1505.2,328.4,-0.7,1.8,2470.217,13.28,0.052,246.4
2022-02-02T07:46:03,42.805,6.029,-0.045,-0.011,-0.032,105.0,104.0,102.0,13.4,1505.2,327.9,-0.8,1.8,2470.195,13.28,0.046,256.3
2022-02-02T07:49:03,42.805,6.029,-0.05,-0.013,-0.019,103.0,105.0,102.0,13.3,1505.2,328.9,-0.7,1.8,2470.183,13.28,0.051,255.4
2022-02-02T07:52:03,42.805,6.029,-0.057,-0.035,-0.008,105.0,104.0,103.0,13.4,1505.2,326.3,-0.8,1.8,2470.201,13.28,0.066,238.4
2022-02-02T07:55:03,42.805,6.029,-0.047,-0.012,-0.002,104.0,104.0,103.0,13.4,1505.2,331.4,-0.7,1.8,2470.188,13.28,0.048,255.7
2022-02-02T07:58:03,42.805,6.029,-0.049,-0.016,-0.035,105.0,104.0,103.0,13.4,1505.2,326.6,-0.8,1.8,2470.204,13.28,0.051,251.9
2022-02-02T08:04:03,42.805,6.029,-0.067,-0.035,-0.01,106.0,104.0,103.0,13.4,1505.2,328.5,-0.7,1.8,2470.255,13.28,0.075,242.4
2022-02-02T08:07:03,42.805,6.029,-0.048,-0.002,-0.008,104.0,104.0,104.0,13.3,1505.2,328.5,-0.7,1.8,2470.208,13.28,0.048,267.6
2022-02-02T08:10:03,42.805,6.029,-0.045,-0.003,-0.007,105.0,105.0,102.0,13.4,1505.2,330.8,-0.7,1.9,2470.273,13.28,0.045,266.2
2022-02-02T08:13:03,42.805,6.029,-0.046,-0.019,-0.013,104.0,104.0,102.0,13.3,1505.2,327.8,-0.8,1.8,2470.237,13.28,0.049,247.6
2022-02-02T08:16:03,42.805,6.029,-0.052,0.0,-0.02,104.0,104.0,102.0,13.3,1505.2,324.4,-0.8,1.8,2470.286,13.28,0.052,270.0
2022-02-02T08:19:03,42.805,6.029,-0.053,-0.01,-0.023,106.0,103.0,103.0,13.4,1505.2,325.8,-0.8,1.8,2470.325,13.28,0.053,259.3
2022-02-02T08:22:03,42.805,6.029,-0.043,-0.006,-0.024,103.0,104.0,102.0,13.4,1505.2,331.1,-0.7,1.8,2470.291,13.28,0.043,262.1
2022-02-02T08:25:03,42.805,6.029,-0.047,-0.009,-0.026,105.0,104.0,103.0,13.4,1505.2,329.8,-0.7,1.8,2470.291,13.28,0.047,259.2
2022-02-02T08:28:03,42.805,6.029,-0.047,0.0,-0.016,105.0,105.0,102.0,13.4,1505.2,325.7,-0.8,1.8,2470.327,13.28,0.047,270.0
2022-02-02T08:31:03,42.805,6.029,-0.07,-0.017,-0.03,105.0,104.0,103.0,13.3,1505.2,327.1,-0.8,1.8,2470.304,13.28,0.072,256.3
2022-02-02T08:34:03,42.805,6.029,-0.049,-0.018,0.0,105.0,105.0,103.0,13.4,1505.2,327.8,-0.7,1.8,2470.292,13.28,0.052,249.8
2022-02-02T08:37:03,42.805,6.029,-0.046,-0.026,0.0,105.0,104.0,104.0,13.4,1505.2,325.3,-0.8,1.8,2470.326,13.28,0.052,240.5
2022-02-02T08:40:03,42.805,6.029,-0.052,-0.036,-0.015,106.0,104.0,103.0,13.4,1505.2,324.5,-0.7,1.8,2470.33,13.28,0.063,235.3
2022-02-02T08:43:03,42.805,6.029,-0.046,-0.005,-0.028,105.0,105.0,102.0,13.3,1505.2,329.3,-0.7,1.8,2470.34,13.28,0.046,263.8
2022-02-02T08:46:03,42.805,6.029,-0.073,-0.001,-0.037,106.0,105.0,102.0,13.4,1505.2,329.2,-0.8,1.8,2470.373,13.28,0.073,269.2
2022-02-02T08:49:03,42.805,6.029,-0.052,-0.014,-0.027,106.0,104.0,102.0,13.4,1505.2,327.7,-0.7,1.9,2470.307,13.28,0.053,254.9
2022-02-02T08:52:03,42.805,6.029,-0.05,-0.013,-0.015,105.0,105.0,102.0,13.4,1505.2,324.0,-0.8,1.9,2470.334,13.28,0.051,255.4
2022-02-02T08:55:03,42.805,6.029,-0.075,0.002,-0.017,106.0,104.0,103.0,13.3,1505.2,324.1,-0.8,1.8,2470.351,13.28,0.075,271.5
2022-02-02T08:58:03,42.805,6.029,-0.052,-0.014,-0.051,106.0,105.0,103.0,13.4,1505.2,324.1,-0.8,1.8,2470.338,13.28,0.053,254.9
2022-02-02T09:04:03,42.805,6.029,-0.033,-0.024,-0.023,105.0,105.0,103.0,13.3,1505.2,327.9,-0.8,1.8,2470.381,13.28,0.04,234.0
2022-02-02T09:07:03,42.805,6.029,-0.078,-0.031,-0.034,106.0,105.0,102.0,13.4,1505.2,329.9,-0.7,1.8,2470.367,13.28,0.083,248.3
2022-02-02T09:10:03,42.805,6.029,-0.03,-0.015,-0.03,104.0,105.0,103.0,13.3,1505.2,331.4,-0.7,1.8,2470.387,13.28,0.033,243.4
2022-02-02T09:13:03,42.805,6.029,-0.072,-0.019,-0.043,106.0,103.0,102.0,13.4,1505.2,330.8,-0.8,1.8,2470.357,13.28,0.074,255.2
2022-02-02T09:16:03,42.805,6.029,-0.066,-0.002,-0.041,104.0,104.0,101.0,13.4,1505.2,329.1,-0.7,1.8,2470.327,13.28,0.066,268.3
2022-02-02T09:19:03,42.805,6.029,-0.064,-0.004,-0.013,104.0,104.0,102.0,13.4,1505.2,325.7,-0.7,1.8,2470.337,13.28,0.064,266.4
2022-02-02T09:22:03,42.805,6.029,-0.055,-0.022,-0.029,104.0,103.0,102.0,13.4,1505.2,329.1,-0.8,1.8,2470.327,13.28,0.059,248.2
2022-02-02T09:25:03,42.805,6.029,-0.046,-0.004,-0.011,104.0,104.0,102.0,13.4,1505.2,324.3,-0.7,1.8,2470.328,13.28,0.046,265.0
2022-02-02T09:28:03,42.805,6.029,-0.033,-0.029,-0.025,103.0,102.0,103.0,13.4,1505.2,324.1,-0.7,1.8,2470.3,13.28,0.043,228.7
2022-02-02T09:31:03,42.805,6.029,-0.074,-0.023,-0.054,104.0,103.0,102.0,13.3,1505.2,327.8,-0.7,1.8,2470.32,13.28,0.077,252.7
2022-02-02T09:34:03,42.805,6.029,-0.045,-0.008,-0.008,104.0,102.0,101.0,13.4,1505.2,330.0,-0.8,1.8,2470.309,13.28,0.045,259.9
2022-02-02T09:37:03,42.805,6.029,-0.043,-0.018,-0.037,105.0,104.0,102.0,13.3,1505.2,326.0,-0.8,1.8,2470.309,13.28,0.046,247.3
2022-02-02T09:40:03,42.805,6.029,-0.035,-0.009,-0.04,104.0,104.0,102.0,13.4,1505.2,325.4,-0.7,1.8,2470.312,13.28,0.036,255.6
2022-02-02T09:43:03,42.805,6.029,-0.058,-0.008,-0.045,104.0,104.0,103.0,13.4,1505.2,326.3,-0.7,1.8,2470.348,13.28,0.058,262.2
2022-02-02T09:46:03,42.805,6.029,-0.043,-0.007,-0.033,103.0,105.0,103.0,13.3,1505.2,324.9,-0.8,1.8,2470.308,13.28,0.043,260.8
2022-02-02T09:49:03,42.805,6.029,-0.052,-0.014,-0.033,105.0,103.0,102.0,13.4,1505.2,326.0,-0.7,1.9,2470.272,13.28,0.053,254.9